Cut Bank, MT

8:29 AM MDT on March 27, 2017 (GMT -0600)
Cut Bank Municipal

Weather History for KCTB - August, 2013

Change the Weather History Date:

Thursday, August 29, 2013

  Actual Average Record
Temperature  
Mean Temperature 71 °F 60 °F  
Max Temperature 93 °F 75 °F 93 °F (2013)
Min Temperature 49 °F 45 °F 31 °F (1909)
Degree Days  
Heating Degree Days 0 6  
Month to date heating degree days 27 96  
Since 1 June heating degree days 277 415  
Since 1 July heating degree days 68 182  
Cooling Degree Days 6 1  
Month to date cooling degree days 94 63  
Year to date cooling degree days 193 152  
Since 1 June cooling degree days 191 150  
Growing Degree Days 21 (Base 50)    
Moisture  
Dew Point 49 °F    
Average Humidity 50    
Maximum Humidity 83    
Minimum Humidity 16    
Precipitation  
Precipitation 0.10 in 0.04 in 0.48 in (1951)
Month to date precipitation 1.39 1.11  
Year to date precipitation 10.89 8.58  
Snow  
Snow 0.00 in - - ()
Snow Depth 0.00 in    
Sea Level Pressure  
Sea Level Pressure 29.96 in    
Wind  
Wind Speed 8 mph (WSW)    
Max Wind Speed 44 mph    
Max Gust Speed 53 mph    
Visibility 10 miles    
Events Rain    
T = Trace of Precipitation, MM = Missing Value Source: NWS Daily Summary

Daily Weather History Graph

Daily Weather History Graph

Search for Another Location

Airport or City:

Trip Planner

Search our weather history database for the weather conditions in past years. The results will help you decide how hot, cold, wet, or windy it might be!

Date:

Astronomy

Aug. 29, 2013 Rise Set
Actual Time 6:42 AM MDT 8:16 PM MDT
Civil Twilight 6:09 AM MDT 8:49 PM MDT
Nautical Twilight 5:29 AM MDT 9:29 PM MDT
Astronomical Twilight 4:45 AM MDT 10:12 PM MDT
Moon 12:22 AM MDT (8/29) 4:03 PM MDT (8/29)
Length of Visible Light 14h 39m
Length of Day
13h 33m
Last Quarter, 37% of the Moon is Illuminated
Aug 29
Last Quarter
Sep 5
New
Sep 12
First Quarter
Sep 19
Full
Sep 26
Last Quarter

Hourly Weather History & Observations

Time (MDT) Temp. Dew Point Humidity Pressure Visibility Wind Dir Wind Speed Gust Speed Precip Events Conditions
12:56 AM 59.0 °F 48.0 °F 67% 29.97 in 10.0 mi WNW 12.7 mph - N/A   Clear
1:56 AM 57.9 °F 48.0 °F 70% 29.96 in 10.0 mi WSW 3.5 mph - N/A   Clear
2:56 AM 57.9 °F 48.0 °F 70% 29.96 in 10.0 mi West 6.9 mph - N/A   Clear
3:56 AM 55.9 °F 48.0 °F 75% 29.97 in 10.0 mi WNW 3.5 mph - N/A   Clear
4:56 AM 55.0 °F 46.9 °F 74% 29.97 in 10.0 mi Calm Calm - N/A   Clear
5:56 AM 52.0 °F 46.9 °F 83% 29.99 in 10.0 mi Calm Calm - N/A   Clear
6:56 AM 51.1 °F 45.0 °F 80% 29.99 in 10.0 mi Calm Calm - N/A   Clear
7:56 AM 59.0 °F 48.9 °F 69% 29.99 in 10.0 mi WNW 4.6 mph - N/A   Clear
8:56 AM 66.9 °F 48.9 °F 52% 29.99 in 10.0 mi Calm Calm - N/A   Clear
9:56 AM 72.0 °F 50.0 °F 46% 29.98 in 10.0 mi NE 3.5 mph - N/A   Clear
10:56 AM 78.1 °F 48.0 °F 35% 29.96 in 10.0 mi SE 5.8 mph - N/A   Clear
11:56 AM 84.0 °F 48.0 °F 28% 29.94 in 10.0 mi SE 11.5 mph 18.4 mph N/A   Clear
12:56 PM 88.0 °F 46.9 °F 24% 29.92 in 10.0 mi SE 18.4 mph 25.3 mph N/A   Clear
1:56 PM 90.0 °F 44.1 °F 20% 29.89 in 10.0 mi East 9.2 mph 20.7 mph N/A   Clear
2:56 PM 91.9 °F 39.9 °F 16% 29.87 in 10.0 mi SSE 13.8 mph 21.9 mph N/A   Partly Cloudy
3:56 PM 87.1 °F 41.0 °F 20% 29.87 in 10.0 mi SE 12.7 mph 24.2 mph N/A   Clear
4:56 PM 84.0 °F 50.0 °F 31% 29.85 in 10.0 mi ESE 6.9 mph - 0.02 in   Partly Cloudy
5:56 PM 82.0 °F 51.1 °F 34% 29.86 in 10.0 mi NNE 8.1 mph - N/A   Partly Cloudy
6:56 PM 79.0 °F 48.0 °F 34% 29.91 in 10.0 mi NNW 10.4 mph - N/A   Mostly Cloudy
7:17 PM 64.4 °F 55.4 °F 73% 30.06 in 5.0 mi West 38.0 mph 50.6 mph 0.04 in Rain Rain
7:56 PM 63.0 °F 55.9 °F 78% 30.06 in 10.0 mi West 20.7 mph - 0.08 in Rain Light Rain
8:56 PM 64.0 °F 54.0 °F 70% 29.96 in 10.0 mi West 12.7 mph - 0.00 in   Scattered Clouds
9:56 PM 61.0 °F 54.0 °F 78% 29.97 in 10.0 mi West 11.5 mph 17.3 mph N/A   Clear
10:13 PM 62.6 °F 53.6 °F 72% 30.05 in 10.0 mi WSW 11.5 mph - N/A   Clear
10:56 PM 63.0 °F 51.1 °F 65% 29.96 in 10.0 mi West 4.6 mph - N/A   Clear
11:56 PM 60.1 °F 51.1 °F 72% 29.96 in 10.0 mi WSW 5.8 mph - N/A   Clear